Regional Weather Roundup
Issued by NWS

Home | Current Version | Previous Version | Graphics & Text | Print | Product List | Glossary Off
Versions: 1 2 3 4 5 6 7 8 9 10 11 12 13 14 15 16 17 18 19 20 21 22 23 24 25 26 27 28 29 30 31 32 33 34 35 36 37 38 39 40 41 42 43 44 45 46 47 48 49 50

000
ASUS43 KDMX 222106
RWRIA

WEATHER ROUNDUP FOR IOWA
NATIONAL WEATHER SERVICE DES MOINES IA
400 PM CDT THU JUN 22 2017

NOTE: "FAIR" INDICATES FEW OR NO CLOUDS BELOW 12,000 FEET WITH NO
SIGNIFICANT WEATHER AND/OR OBSTRUCTIONS TO VISIBILITY.

* - THESE STATIONS ARE NOT NWS STATIONS...THUS NOT UNDER NWS
QUALITY CONTROL.  THEY ALSO DO NOT REPORT WEATHER SUCH
AS PRECIPITATION OR FOG.

IAZ001>003-012>014-020>022-031>034-043>046-222200-
   NORTHWEST IOWA

CITY           SKY/WX    TMP DP  RH WIND       PRES   REMARKS
CARROLL *      CLOUDY    86  66  51 SW8       29.65S HX  88
CHEROKEE *     CLOUDY    85  66  53 E5        29.67S HX  87
DENISON *      CLOUDY    86  66  51 VRB3G12   29.67S HX  88
LE MARS *      CLOUDY    82  61  47 NE17G25   29.70R HX  83
ORANGE CITY *  MOSUNNY   82  63  51 NE8G17    29.71F HX  83
SHELDON *      SUNNY     81  63  54 NE12G21   29.71S HX  82
SIOUX CITY     PTSUNNY   85  66  53 E10       29.66S HX  87
SPENCER        CLOUDY    81  61  50 NE14      29.71R HX  82
STORM LAKE *   CLOUDY    81  70  69 NE10      29.68S HX  84
$$

IAZ055>058-069>071-079>083-090>094-222200-
   SOUTHWEST IOWA

CITY           SKY/WX    TMP DP  RH WIND       PRES   REMARKS
ATLANTIC *     MOSUNNY   86  70  58 SW13      29.65R HX  90
AUDUBON *      MOSUNNY   84  72  65 SW10G18   29.68R HX  89
CLARINDA *     CLOUDY    88  70  55 S14G24    29.65F HX  92
COUNCIL BLFS * CLOUDY    88  72  58 S9        29.64S HX  94
CRESTON *      SUNNY     86  68  54 S20G26    29.68F HX  89
HARLAN  *      CLOUDY    86  70  58 S10G17    29.68F HX  90
LAMONI         CLOUDY    85  71  63 S14G21    29.68F HX  90
RED OAK *      MOSUNNY   88  72  58 S15       29.64S HX  94
SHENANDOAH *   SUNNY     88  72  58 S15G24    29.63F HX  94
$$

IAZ047>049-059>061-072>074-084-222200-
   CENTRAL IOWA

CITY           SKY/WX    TMP DP  RH WIND       PRES   REMARKS
AMES           CLOUDY    85  70  60 S13G21    29.65F HX  89
ANKENY *       CLOUDY    86  70  58 S13       29.66F HX  90
BOONE *        PTSUNNY   84  66  54 SW12G20   29.67R HX  86
CHARITON *     CLOUDY    84  70  61 S9        29.67F HX  88
DES MOINES     CLOUDY    86  68  54 SW13G18   29.65F HX  89
GRINNELL*      CLOUDY    84  70  62 S12       29.69S HX  88
KNOXVILLE *    CLOUDY    82  70  65 VRB3G17   29.63F HX  86
MARSHALLTOWN   CLOUDY    83  72  69 S14       29.67F HX  88
NEWTON *       CLOUDY    82  70  65 S12G17    29.67F HX  86
PELLA *        CLOUDY    85  68  58 S7        29.67F HX  88
PERRY *          N/A     85  64  49 SW15      29.66S HX  86
$$

IAZ004>006-015-016-023>025-035-036-222200-
   NORTH CENTRAL IOWA

CITY           SKY/WX    TMP DP  RH WIND       PRES   REMARKS
ALGONA *       CLOUDY    77  66  69 E8        29.70S
CLARION *        N/A     82  72  69 VRB5      29.68F HX  87
ESTHERVILLE    CLOUDY    76  65  68 NE15      29.72S
FORT DODGE *   CLOUDY    82  66  57 N10G16    29.67F HX  85
MASON CITY     CLOUDY    72  68  87 E10       29.71F
FOREST CITY *  LGT RAIN  75  64  69 NE6       29.70F
WEBSTER CITY * CLOUDY    82  70  65 E9        29.65F HX  86
IOWA FALLS *   CLOUDY    83  69  61 S10       29.71R HX  87
$$

IAZ007>011-017>019-026>030-037>042-050>054-066-222200-
   NORTHEAST IOWA

CITY           SKY/WX    TMP DP  RH WIND       PRES   REMARKS
CEDAR RAPIDS   LGT RAIN  82  72  71 W10G24    29.68S HX  87
CHARLES CITY * CLOUDY    79  72  78 S8G14     29.72R HX  82
CLINTON *      CLOUDY    85  72  65 S20       29.71F HX  91
DECORAH *      CLOUDY    77  70  78 SW6       29.72S
DUBUQUE        CLOUDY    80  70  71 SE5       29.72F HX  83
MONTICELLO *   CLOUDY    81  72  74 CALM      29.68R HX  84
OELWEIN *      CLOUDY    79  72  78 S9        29.71S HX  82
WATERLOO       PTSUNNY   81  70  69 S8        29.68F HX  84
$$

IAZ064-065-067-068-078-222200-
   EAST CENTRAL IOWA

CITY           SKY/WX    TMP DP  RH WIND       PRES   REMARKS
DAVENPORT      CLOUDY    86  72  62 S16       29.73F HX  92
IOWA CITY      CLOUDY    86  70  58 S17       29.66F HX  90
MT. PLEASANT * MOSUNNY   86  67  53 S12       29.72F HX  89
MUSCATINE *    PTSUNNY   88  70  55 S12G18    29.71F HX  92
QUAD CITIES    MOSUNNY   87  71  58 S13       29.72F HX  93
$$

IAZ062-063-075>077-085>089-095>099-222200-
   SOUTHEAST IOWA

CITY           SKY/WX    TMP DP  RH WIND       PRES   REMARKS
BURLINGTON     PTSUNNY   84  73  69 S14       29.73F HX  90
FAIRFIELD *    MOSUNNY   90  68  48 S15       29.70F HX  93
FORT MADISON * PTSUNNY   84  73  70 S9        29.75F HX  91
KEOKUK *       CLOUDY    82  72  69 S13       29.73F HX  87
OSKALOOSA *      N/A     86  68  55 S15G23    29.68F HX  89
CENTERVILLE *    N/A     82  72  69 SE15      29.70F HX  87
OTTUMWA        PTSUNNY   87  70  56 S15       29.69F HX  92
WASHINGTON *   MOSUNNY   88  72  58 S13G21    29.71F HX  94
$$

ABBREVIATIONS USED IN REMARKS
   TC - TEMPERATURES IN CELSIUS
  WCI - WIND CHILL INDEX
   HX - HEAT INDEX
  VSB - VISIBILITY
$$





USA.gov is the U.S. government's official web portal to all federal, state and local government web resources and services.